Location: *
(44.1392°N, 4.8079°E)
Time: 21:47:46
(UTC+00:00)

Cosmos 2151 - Pass Details

Date: 21 June 2021
Orbit: 582 x 600 km, 82.5° (Epoch: 01 August)

Event Time Altitude Azimuth Distance (km) Brightness Sun altitude
Exits shadow 01:53:34 31° 212° (SSW) 1,041 3.6 -16.1°
Maximum altitude 01:55:25 60° 280° (W) 672 3.1 -15.9°
Drops below altitude 10° 01:59:36 10° 1° (N) 1,912 6.5 -15.5°
Sets 02:01:50 0° 6° (N) 2,815 7.6 -15.3°
